Hourly Data Report for September 12, 2017

All times are specified in Local Standard Time (LST). Add 1 hour to adjust for Daylight Saving Time where and when it is observed.

GRISE FIORD CLIMATE
NUNAVUT

76°25'22.040" N
82°54'08.020" W
44.50 m
2402351
71971
NGC

Download Data

Hourly Data (September 2017)
Hourly Data Report for September 12, 2017
Temp Definition
°C
Dew Point Temp Definition
°C
Rel Hum Definition
%
Wind Dir Definition
10's deg

Wind Spd Definition
km/h
Visibility Definition
km
Stn Press Definition
kPa
Hmdx Definition


Wind Chill Definition


Weather Definition


TIME
00:00 -1.6 -3.1 90 3 2   100.56   -2 LegendNANA
01:00 -1.5 -3.4 86 2 4   100.59   -3 LegendNANA
02:00 -1.7 -3.1 90 27 1   100.63   -2 LegendNANA
03:00 -1.8 -3.0 91 4 1   100.66   -2 LegendNANA
04:00 -1.8 -3.4 89 32 1   100.71   -2 LegendNANA
05:00 -1.8 -3.6 88 11 2   100.75   -3 LegendNANA
06:00 -1.7 -3.7 86   0   100.79     LegendNANA
07:00 -1.8 -3.5 88 5 4   100.83   -3 LegendNANA
08:00 -1.4 -3.5 85 20 3   100.87   -2 LegendNANA
09:00 -1.4 -3.9 83 22 3   100.91   -2 LegendNANA
10:00 -2.3 -3.8 90 25 14   100.96   -7 LegendNANA
11:00 -2.7 -4.2 89 24 12   100.98   -7 LegendNANA
12:00 -2.5 -3.9 90 24 11   101.02   -7 LegendNANA
13:00 -3.2 -4.5 91 23 18   101.08   -9 LegendNANA
14:00 -3.5 -4.5 92 24 14   101.13   -9 LegendNANA
15:00 -3.5 -4.8 91 26 12   101.19   -8 LegendNANA
16:00 -3.8 -5.3 89 25 11   101.23   -8 LegendNANA
17:00 -3.9 -5.3 90 25 7   101.27   -7 LegendNANA
18:00 -4.0 -5.5 90 24 10   101.30   -8 LegendNANA
19:00 -4.2 -5.9 88 24 9   101.33   -8 LegendNANA
20:00 -4.2 -5.6 90 24 7   101.35   -7 LegendNANA
21:00 -4.4 -5.6 92 25 9   101.37   -8 LegendNANA
22:00 -4.6 -5.6 93 25 9   101.39   -8 LegendNANA
23:00 -4.8 -5.9 92 24 7   101.41   -8 LegendNANA

Notes on Data Quality.

Legend

  • E = Estimated
  • M = Missing
  • NA = Not Available
  • ‡ = Partner data that is not subject to review by the National Climate Archives
Date modified: